Hourly Weather Smolyanka

Today, 18 May, Tuesday

Time Temperature Precipitation Wind Pressure Humidity
00:00 +11°C° 0 mm 0 mps 724 mmHg 86%
01:00 +12°C° 0 mm 1 mps 724 mmHg 87%
02:00 +11°C° 0 mm 1 mps 723 mmHg 88%
03:00 +11°C° 0 mm 1 mps 723 mmHg 89%
04:00 +12°C° 0 mm 1 mps 723 mmHg 90%
05:00 +12°C° 0 mm 1 mps 722 mmHg 90%
06:00 +13°C° 0.2 mm 1 mps 723 mmHg 88%
07:00 +14°C° 0.2 mm 1 mps 723 mmHg 86%
08:00 +15°C° 0.2 mm 1 mps 723 mmHg 85%
09:00 +15°C° 0.4 mm 2 mps 723 mmHg 83%
10:00 +16°C° 0.4 mm 3 mps 723 mmHg 81%
11:00 +15°C° 0.4 mm 4 mps 723 mmHg 79%
12:00 +17°C° 0.4 mm 4 mps 723 mmHg 77%
13:00 +16°C° 0.4 mm 5 mps 723 mmHg 75%
14:00 +17°C° 0.4 mm 6 mps 723 mmHg 73%
15:00 +16°C° 0.8 mm 6 mps 723 mmHg 78%
16:00 +15°C° 0.8 mm 6 mps 723 mmHg 82%
17:00 +14°C° 0.8 mm 7 mps 723 mmHg 87%
18:00 +12°C° 0.6 mm 7 mps 723 mmHg 89%
19:00 +12°C° 0.6 mm 8 mps 723 mmHg 92%
20:00 +11°C° 0.6 mm 9 mps 723 mmHg 95%
21:00 +11°C° 0.1 mm 9 mps 724 mmHg 95%
22:00 +10°C° 0.1 mm 9 mps 724 mmHg 95%
23:00 +10°C° 0.1 mm 9 mps 724 mmHg 95%

Tomorrow, 19 May, Wednesday

Time Temperature Precipitation Wind Pressure Humidity
00:00 +10°C° 0.2 mm 9 mps 724 mmHg 95%
01:00 +10°C° 0.2 mm 9 mps 725 mmHg 95%
02:00 +10°C° 0.2 mm 9 mps 725 mmHg 95%
03:00 +8°C° 0.3 mm 9 mps 725 mmHg 95%
04:00 +9°C° 0.3 mm 8 mps 726 mmHg 96%
05:00 +9°C° 0.3 mm 8 mps 726 mmHg 96%
06:00 +9°C° 0.2 mm 8 mps 726 mmHg 95%
07:00 +9°C° 0.2 mm 8 mps 727 mmHg 95%
08:00 +9°C° 0.2 mm 8 mps 727 mmHg 95%
09:00 +9°C° 0.1 mm 8 mps 728 mmHg 94%
10:00 +9°C° 0.1 mm 7 mps 728 mmHg 92%
11:00 +10°C° 0.1 mm 7 mps 729 mmHg 91%
12:00 +10°C° 0.1 mm 7 mps 729 mmHg 87%
13:00 +11°C° 0.1 mm 6 mps 729 mmHg 84%
14:00 +13°C° 0.1 mm 6 mps 729 mmHg 80%
15:00 +13°C° 0.1 mm 6 mps 729 mmHg 78%
16:00 +14°C° 0.1 mm 5 mps 729 mmHg 76%
17:00 +14°C° 0.1 mm 5 mps 729 mmHg 75%
18:00 +13°C° 0 mm 4 mps 729 mmHg 80%
19:00 +11°C° 0 mm 3 mps 730 mmHg 85%
20:00 +10°C° 0 mm 2 mps 730 mmHg 90%
21:00 +10°C° 0 mm 2 mps 730 mmHg 91%
22:00 +9°C° 0 mm 2 mps 730 mmHg 92%
23:00 +9°C° 0 mm 2 mps 730 mmHg 93%

Day after tomorrow, 20 May, Thursday

Time Temperature Precipitation Wind Pressure Humidity
00:00 +8°C° 0 mm 2 mps 730 mmHg 93%
01:00 +8°C° 0 mm 2 mps 730 mmHg 93%
02:00 +8°C° 0 mm 2 mps 730 mmHg 93%
03:00 +7°C° 0 mm 2 mps 730 mmHg 94%
04:00 +7°C° 0 mm 2 mps 730 mmHg 94%
05:00 +7°C° 0 mm 2 mps 729 mmHg 95%
06:00 +8°C° 0 mm 2 mps 730 mmHg 91%
07:00 +10°C° 0 mm 3 mps 730 mmHg 87%
08:00 +11°C° 0 mm 3 mps 730 mmHg 82%
09:00 +12°C° 0.3 mm 3 mps 730 mmHg 79%
10:00 +13°C° 0.3 mm 3 mps 730 mmHg 75%
11:00 +14°C° 0.3 mm 3 mps 730 mmHg 71%
12:00 +14°C° 0.7 mm 3 mps 730 mmHg 72%
13:00 +14°C° 0.7 mm 3 mps 730 mmHg 73%
14:00 +14°C° 0.7 mm 3 mps 730 mmHg 73%
15:00 +14°C° 0.7 mm 4 mps 730 mmHg 75%
16:00 +14°C° 0.7 mm 4 mps 730 mmHg 77%
17:00 +13°C° 0.7 mm 4 mps 729 mmHg 79%
18:00 +13°C° 1.2 mm 4 mps 730 mmHg 82%
19:00 +12°C° 1.2 mm 5 mps 730 mmHg 85%
20:00 +10°C° 1.2 mm 5 mps 730 mmHg 88%
21:00 +10°C° 0.9 mm 5 mps 730 mmHg 89%
22:00 +10°C° 0.9 mm 6 mps 730 mmHg 91%
23:00 +9°C° 0.9 mm 6 mps 731 mmHg 92%

21 May, Friday

Time Temperature Precipitation Wind Pressure Humidity
00:00 +9°C° 0.8 mm 6 mps 731 mmHg 92%
01:00 +9°C° 0.8 mm 6 mps 731 mmHg 92%
02:00 +9°C° 0.8 mm 6 mps 731 mmHg 92%
03:00 +8°C° 0.2 mm 6 mps 732 mmHg 93%
04:00 +8°C° 0.2 mm 6 mps 732 mmHg 93%
05:00 +8°C° 0.2 mm 6 mps 732 mmHg 93%
06:00 +9°C° 0.1 mm 6 mps 733 mmHg 90%
07:00 +10°C° 0.1 mm 6 mps 733 mmHg 87%
08:00 +10°C° 0.1 mm 6 mps 734 mmHg 84%
09:00 +11°C° 0.2 mm 6 mps 734 mmHg 79%
10:00 +14°C° 0.2 mm 6 mps 734 mmHg 74%
11:00 +15°C° 0.2 mm 6 mps 734 mmHg 69%
12:00 +15°C° 0.4 mm 5 mps 734 mmHg 68%
13:00 +15°C° 0.4 mm 5 mps 734 mmHg 66%
14:00 +15°C° 0.4 mm 5 mps 734 mmHg 65%
15:00 +15°C° 0.1 mm 5 mps 734 mmHg 64%
16:00 +17°C° 0.1 mm 4 mps 734 mmHg 63%
17:00 +17°C° 0.1 mm 4 mps 734 mmHg 62%
18:00 +14°C° 0.1 mm 3 mps 734 mmHg 67%
19:00 +14°C° 0.1 mm 2 mps 735 mmHg 72%
20:00 +12°C° 0.1 mm 2 mps 735 mmHg 78%
21:00 +11°C° 0 mm 1 mps 735 mmHg 78%
22:00 +11°C° 0 mm 1 mps 735 mmHg 79%
23:00 +10°C° 0 mm 1 mps 735 mmHg 80%

22 May, Saturday

Time Temperature Precipitation Wind Pressure Humidity
00:00 +10°C° 0 mm 1 mps 735 mmHg 80%
01:00 +8°C° 0 mm 0 mps 734 mmHg 81%
02:00 +8°C° 0 mm 0 mps 734 mmHg 81%
03:00 +9°C° 0 mm 1 mps 734 mmHg 82%
04:00 +9°C° 0 mm 1 mps 734 mmHg 84%
05:00 +8°C° 0 mm 2 mps 734 mmHg 85%
06:00 +9°C° 0 mm 2 mps 734 mmHg 81%
07:00 +12°C° 0 mm 2 mps 734 mmHg 78%
08:00 +13°C° 0 mm 3 mps 734 mmHg 74%
09:00 +14°C° 0 mm 3 mps 734 mmHg 70%
10:00 +17°C° 0 mm 3 mps 734 mmHg 66%
11:00 +18°C° 0 mm 4 mps 734 mmHg 62%
12:00 +19°C° 0 mm 4 mps 733 mmHg 61%
13:00 +19°C° 0 mm 5 mps 733 mmHg 60%
14:00 +20°C° 0 mm 5 mps 733 mmHg 59%
15:00 +20°C° 0 mm 5 mps 732 mmHg 62%
16:00 +20°C° 0 mm 5 mps 732 mmHg 65%
17:00 +20°C° 0 mm 5 mps 732 mmHg 68%
18:00 +17°C° 0 mm 5 mps 732 mmHg 73%
19:00 +17°C° 0 mm 4 mps 732 mmHg 77%
20:00 +14°C° 0 mm 4 mps 732 mmHg 82%
21:00 +14°C° 0 mm 4 mps 732 mmHg 83%
22:00 +13°C° 0 mm 4 mps 732 mmHg 84%
23:00 +13°C° 0 mm 4 mps 732 mmHg 84%

23 May, Sunday

Time Temperature Precipitation Wind Pressure Humidity
00:00 +12°C° 0 mm 4 mps 732 mmHg 83%
01:00 +12°C° 0 mm 4 mps 731 mmHg 82%
02:00 +12°C° 0 mm 3 mps 731 mmHg 81%
03:00 +12°C° 0 mm 3 mps 731 mmHg 82%
04:00 +12°C° 0 mm 3 mps 731 mmHg 82%
05:00 +12°C° 0 mm 3 mps 731 mmHg 82%
06:00 +13°C° 0 mm 3 mps 731 mmHg 80%
07:00 +14°C° 0 mm 3 mps 732 mmHg 78%
08:00 +15°C° 0 mm 4 mps 732 mmHg 76%
09:00 +15°C° 0 mm 4 mps 732 mmHg 75%
10:00 +17°C° 0 mm 4 mps 733 mmHg 74%
11:00 +17°C° 0 mm 4 mps 733 mmHg 73%
12:00 +17°C° 0 mm 4 mps 733 mmHg 74%
13:00 +17°C° 0 mm 4 mps 733 mmHg 75%
14:00 +15°C° 0 mm 4 mps 733 mmHg 76%
15:00 +15°C° 0 mm 4 mps 733 mmHg 74%
16:00 +16°C° 0 mm 3 mps 733 mmHg 72%
17:00 +16°C° 0 mm 3 mps 733 mmHg 71%
18:00 +15°C° 0 mm 2 mps 734 mmHg 74%
19:00 +14°C° 0 mm 2 mps 734 mmHg 76%
20:00 +13°C° 0 mm 2 mps 734 mmHg 79%
21:00 +12°C° 0 mm 2 mps 734 mmHg 77%
22:00 +12°C° 0 mm 2 mps 735 mmHg 75%
23:00 +12°C° 0 mm 2 mps 735 mmHg 73%
Show more

We Need Your Consent

Meteoprog and our Service Providers may store and access personal data such as cookies, device identifiers or other similar technologies on your device and process such data to personalise content and ads, as well as provide social media features and to analyse the traffic.

  • Store and/or access information on your device

    Cookies, device identifiers or other information can be stored or accessed on your device for the purposes indicated above.

  • Personalised ads and content, ad and content measurement, audience insights, and products development

    Ads and content can be personalised based on a profile. More data can be added to better personalise ads and content. Ad and content performance can be measured. Insights about the audience who saw the ads and content can be derived. Such data can be used to develop or improve user’s experience, systems and software.

By clicking ‘I Agree’ you will allow the use of indicated cookies, device identifiers, web beacons or other similar technologies. Your settings can be changed in the browser on your device.

For certain purposes, legitimate interests may be relied on, rather than consent. You can read more about this in our Privacy and Cookie Policy.